K5BV Weather Reports


Display with metric or nautical units.
time (UTC)temp
F
wind
direction
speed
MPH
gust
MPH
rain 1hr
in
rain 24hr
in
rain mn
in
humidity
%
barometer
mb
20260503031239 68 0 0.0 0.0 0.00 0.00 0.00 69 1021.3
20260503030240 69 0 0.0 0.0 0.00 0.00 0.00 69 1021.2
20260503025240 69 0 0.0 0.0 0.00 0.00 0.00 68 1021.0
20260503024239 69 0 0.0 0.0 0.00 0.00 0.00 68 1021.0
20260503023239 70 0 0.0 0.0 0.00 0.00 0.00 67 1020.9
20260503022239 70 0 0.0 0.0 0.00 0.00 0.00 66 1020.7
20260503021239 70 0 0.0 0.0 0.00 0.00 0.00 65 1020.6
20260503020239 70 0 0.0 0.0 0.00 0.00 0.00 64 1020.4
20260503015239 71 0 0.0 0.0 0.00 0.00 0.00 63 1020.4
20260503014240 72 0 0.0 0.0 0.00 0.00 0.00 64 1020.3
20260503013239 72 0 0.0 0.0 0.00 0.00 0.00 63 1020.2
20260503012240 72 0 0.0 0.0 0.00 0.00 0.00 62 1020.0
20260503011239 73 0 0.0 0.0 0.00 0.00 0.00 61 1019.9
20260503010239 73 0 0.0 0.0 0.00 0.01 0.00 61 1020.0
20260503005239 73 0 0.0 0.0 0.00 0.01 0.00 61 1019.9
20260503004239 74 0 0.0 0.0 0.00 0.01 0.00 59 1020.0
20260503003240 74 0 0.0 0.0 0.00 0.01 0.00 57 1020.0
20260503002240 74 0 0.0 0.0 0.00 0.01 0.00 60 1020.0
20260503001240 74 0 0.0 0.0 0.00 0.01 0.00 56 1019.9
20260503000240 75 0 0.0 0.0 0.00 0.01 0.00 58 1019.8
20260502235239 75 0 0.0 0.0 0.00 0.01 0.00 58 1019.7
20260502234239 76 0 0.0 0.0 0.00 0.02 0.00 57 1019.7
20260502233241 76 0 0.0 0.0 0.00 0.32 0.00 58 1019.7
20260502232241 75 0 0.0 0.0 0.00 0.33 0.00 59 1019.6
20260502231240 75 0 0.0 0.0 0.00 0.33 0.00 59 1019.7
20260502230240 75 0 0.0 0.0 0.00 0.33 0.00 60 1019.6
20260502225240 75 0 0.0 0.0 0.00 0.33 0.00 59 1019.6
20260502224240 75 0 0.0 0.0 0.00 0.33 0.00 58 1019.7
20260502223240 76 0 0.0 0.0 0.00 0.33 0.00 59 1019.6
20260502222241 76 0 0.0 0.0 0.00 0.34 0.00 58 1019.6
20260502221240 76 0 0.0 0.0 0.00 0.35 0.00 58 1019.6
20260502220240 76 0 0.0 0.0 0.00 0.35 0.00 59 1019.6
20260502215240 76 0 0.0 0.0 0.00 0.35 0.00 58 1019.7
20260502214240 76 0 0.0 0.0 0.00 0.35 0.00 59 1019.7
20260502213240 76 0 0.0 0.0 0.00 0.35 0.00 55 1019.8
20260502212240 76 0 0.0 0.0 0.00 0.36 0.00 55 1019.9
20260502211242 76 0 0.0 0.0 0.00 0.36 0.00 56 1020.0
20260502210241 76 0 0.0 0.0 0.00 0.36 0.00 57 1020.2
20260502205240 75 0 0.0 0.0 0.00 0.37 0.00 57 1020.2
20260502204240 75 0 0.0 0.0 0.00 0.37 0.00 57 1020.2
20260502203240 76 0 0.0 0.0 0.00 0.37 0.00 59 1020.4
20260502202241 75 0 0.0 0.0 0.00 0.37 0.00 58 1020.5
20260502201241 75 0 0.0 0.0 0.00 0.39 0.00 58 1020.6
20260502200240 75 0 0.0 0.0 0.00 0.41 0.00 59 1020.7
20260502195240 75 0 0.0 0.0 0.00 0.42 0.00 58 1020.7
20260502194240 75 0 0.0 0.0 0.00 0.42 0.00 58 1020.7
20260502193239 74 0 0.0 0.0 0.00 0.42 0.00 61 1020.8
20260502192240 74 0 0.0 0.0 0.00 0.42 0.00 61 1020.7
20260502191239 74 0 0.0 0.0 0.00 0.42 0.00 59 1020.7
20260502190239 74 0 0.0 0.0 0.00 0.42 0.00 61 1020.7
20260502185241 73 0 0.0 0.0 0.00 0.42 0.00 64 1020.8
20260502184239 74 0 0.0 0.0 0.00 0.42 0.00 61 1020.8
20260502183240 73 0 0.0 0.0 0.00 0.42 0.00 64 1021.1
20260502182240 73 0 0.0 0.0 0.00 0.42 0.00 63 1021.0
20260502181241 74 0 0.0 0.0 0.00 0.42 0.00 63 1021.2
20260502180240 72 0 0.0 0.0 0.00 0.42 0.00 65 1021.3
20260502170251 69 0 0.0 0.0 0.00 0.42 0.00 70 1021.6
20260502164240 68 0 0.0 0.0 0.00 0.43 0.00 74 1021.6
20260502163241 68 0 0.0 0.0 0.00 0.43 0.00 75 1021.6
20260502162240 68 0 0.0 0.0 0.00 0.43 0.00 79 1021.5
20260502161240 67 0 0.0 0.0 0.00 0.43 0.00 78 1021.4
20260502160239 65 0 0.0 0.0 0.00 0.43 0.00 83 1021.3
20260502152241 63 0 0.0 0.0 0.00 0.43 0.00 88 1021.0
20260502151239 63 0 0.0 0.0 0.00 0.43 0.00 89 1020.8
20260502150240 61 0 0.0 0.0 0.00 0.43 0.00 90 1020.6
20260502130239 59 0 0.0 0.0 0.00 0.44 0.00 97 1019.2
20260502123241 58 0 0.0 0.0 0.00 0.44 0.00 97 1019.0
20260502122241 59 0 0.0 0.0 0.00 0.44 0.00 98 1018.7
20260502121240 58 0 0.0 0.0 0.00 0.44 0.00 98 1018.5
20260502120240 58 0 0.0 0.0 0.00 0.44 0.00 98 1018.3
20260502114241 58 0 0.0 0.0 0.00 0.44 0.00 98 1018.2
20260502113241 58 0 0.0 0.0 0.00 0.44 0.00 98 1018.2
20260502112240 58 0 0.0 0.0 0.00 0.44 0.00 98 1018.2
20260502111241 58 0 0.0 0.0 0.00 0.44 0.00 98 1018.3
20260502110241 58 0 0.0 0.0 0.00 0.44 0.00 98 1018.2
20260502105241 58 0 0.0 0.0 0.00 0.44 0.00 98 1018.2
20260502104241 58 0 0.0 0.0 0.00 0.44 0.00 98 1018.1
20260502103241 58 0 0.0 0.0 0.00 0.44 0.00 98 1018.2
20260502102241 58 0 0.0 0.0 0.00 0.44 0.00 98 1017.9
20260502101241 59 0 0.0 0.0 0.00 0.44 0.00 98 1017.7
20260502100241 58 0 0.0 0.0 0.00 0.44 0.00 98 1017.7
20260502091241 59 0 0.0 0.0 0.00 0.44 0.00 98 1017.4
20260502090241 59 0 0.0 0.0 0.00 0.44 0.00 98 1017.3
20260502071240 60 0 0.0 0.0 0.00 0.44 0.00 96 1016.9
20260502070240 60 0 0.0 0.0 0.00 0.44 0.00 96 1016.7
20260502065241 60 0 0.0 0.0 0.00 0.44 0.00 96 1016.7
20260502064241 61 0 0.0 0.0 0.00 0.44 0.00 97 1016.7
20260502063241 61 0 0.0 0.0 0.00 0.44 0.00 97 1016.7
20260502062241 60 0 0.0 0.0 0.00 0.44 0.00 97 1016.5
20260502061242 61 0 0.0 0.0 0.00 0.44 0.00 97 1016.3
20260502060241 61 0 0.0 0.0 0.00 0.44 0.00 97 1016.1
20260502055242 61 0 0.0 0.0 0.00 0.44 0.00 97 1016.0
20260502054241 61 0 0.0 0.0 0.00 0.44 0.00 97 1016.0
20260502053242 62 0 0.0 0.0 0.00 0.44 0.00 97 1015.8
20260502052241 62 0 0.0 0.0 0.00 0.44 0.00 97 1015.8
20260502051241 62 0 0.0 0.0 0.00 0.44 0.00 97 1015.7
20260502050245 61 0 0.0 0.0 0.00 0.44 0.00 97 1015.6
20260502045241 62 0 0.0 0.0 0.00 0.44 0.27 97 1015.4
20260502044241 62 0 0.0 0.0 0.00 0.44 0.27 97 1015.2
20260502043241 62 0 0.0 0.0 0.00 0.44 0.27 97 1015.1
20260502042240 62 0 0.0 0.0 0.00 0.44 0.27 97 1014.8
20260502041241 62 0 0.0 0.0 0.00 0.44 0.27 97 1014.8
20260502040242 62 0 0.0 0.0 0.00 0.44 0.27 97 1014.7
20260502035241 63 0 0.0 0.0 0.00 0.44 0.27 97 1014.5
20260502034242 63 0 0.0 0.0 0.00 0.44 0.27 97 1014.5
20260502033240 63 0 0.0 0.0 0.00 0.44 0.27 97 1014.3
20260502032240 63 0 0.0 0.0 0.00 0.44 0.27 97 1014.0